Flag for Romania Weather past 2 weeks in Târgu Mureş, Romania

Now
41 °F

Passing clouds.


Feels Like: 35 °F
Forecast: 35 / 42 °F
Wind: 9 mph from Southwest

Location: Tirgu Mures Airport

Current Time: Dec 23, 2014 at 12:42:39 AM

Latest Report: Dec 23, 2014 at 12:00 AM


Visibility: N/A

Pressure: 30.07 "Hg

Humidity: 81%

Dew point: 36 °F

Location of Târgu MureşLocation

Historic Weather in Târgu Mureş — Graph

°F

Târgu Mureş temperature yesterday

Maximum temperature yesterday: 43 °F (at 2:00 PM)
Minimum temperature yesterday: 28 °F (at 4:00 AM)
Average temperature yesterday: 37 °F

Past Weeks' High & Low Weather Summary

 TemperatureHumidityPressure
High52 °F (Dec 17, 1:30 PM)100% (Dec 7, 11:00 PM)30.33 "Hg (Dec 7, 11:00 PM)
Low23 °F (Dec 13, 6:00 AM)61% (Dec 22, 2:30 PM)29.83 "Hg (Dec 17, 2:00 PM)
Average38 °F91%30.10 "Hg
* Reported Dec 7 11:00 PM — Dec 22 11:00 PM, Târgu Mureş, Weather by CustomWeather, © 2014

Note: Actual official high and low records may vary slightly from our data, if they occured in-between our weather recording intervals... More about our weather records

Advertising

Târgu Mureş weather history for previous 24 hours

 ConditionsComfort  
Time TempWeatherWind HumidityBarometerVisibility
11:00 PM
Dec 22
37 °FPassing clouds.2 mph93%30.07 "Hg4 mi
10:00 PM37 °FPassing clouds.5 mph87%30.09 "Hg4 mi
9:00 PM37 °FPassing clouds.7 mph87%30.07 "Hg4 mi
8:30 PM37 °FPassing clouds.7 mph87%30.09 "Hg4 mi
8:00 PM37 °FPassing clouds.5 mph87%30.09 "Hg4 mi
7:30 PM37 °FPassing clouds.7 mph87%30.07 "Hg4 mi
7:00 PM37 °FPassing clouds.7 mph87%30.09 "Hg4 mi
6:30 PM37 °FMostly cloudy.5 mph87%30.09 "Hg4 mi
6:00 PM37 °FMostly cloudy.7 mph87%30.09 "Hg6 mi
5:30 PM39 °FMostly cloudy.5 mph81%30.09 "HgN/A
5:00 PM39 °FMostly cloudy.2 mph75%30.09 "HgN/A
4:30 PM41 °FPartly sunny.5 mph70%30.09 "HgN/A
4:00 PM43 °FPartly sunny.7 mph61%30.09 "HgN/A
3:30 PM43 °FPartly sunny.9 mph66%30.09 "HgN/A
3:00 PM43 °FScattered clouds.14 mph66%30.09 "HgN/A
2:30 PM43 °FScattered clouds.16 mph61%30.12 "HgN/A
2:00 PM43 °FPartly sunny.12 mph66%30.12 "HgN/A
1:30 PM41 °FPartly sunny.16 mph70%30.15 "HgN/A
1:00 PM41 °FPartly sunny.14 mph70%30.15 "HgN/A
12:30 PM41 °FScattered clouds.16 mph70%30.18 "HgN/A
12:00 PM39 °FScattered clouds.14 mph75%30.18 "HgN/A
11:30 AM39 °FBroken clouds.7 mph75%30.21 "HgN/A
11:00 AM37 °FBroken clouds.7 mph81%30.21 "HgN/A
10:30 AM34 °FMore clouds than sun.2 mph93%30.21 "HgN/A
10:00 AM34 °FBroken clouds.5 mph93%30.24 "HgN/A
9:30 AM34 °FMore clouds than sun.2 mph87%30.24 "HgN/A
9:00 AM34 °FBroken clouds.5 mph87%30.24 "HgN/A
8:30 AM34 °FMore clouds than sun.2 mph87%30.24 "HgN/A
8:00 AM34 °FPartly cloudy.2 mph87%30.24 "HgN/A
7:30 AM32 °FMostly cloudy.2 mph93%30.24 "HgN/A
7:00 AM32 °FPassing clouds.2 mph87%30.27 "HgN/A
6:30 AM32 °FPassing clouds.5 mph87%30.27 "HgN/A
5:30 AM30 °FPassing clouds.5 mph93%30.27 "HgN/A
5:00 AM30 °FPassing clouds.9 mph93%30.27 "HgN/A
4:00 AM28 °FPassing clouds.7 mph100%30.30 "HgN/A
3:00 AM30 °FPassing clouds.2 mph93%30.27 "Hg5 mi
2:00 AM32 °FMostly cloudy.5 mph93%30.30 "HgN/A
1:00 AM32 °FPassing clouds.2 mph93%30.30 "HgN/A
12:00 AM34 °FPassing clouds.9 mph93%30.30 "HgN/A
Weather by CustomWeather, © 2014

See weather overviewHow to use our weather pages